STARLINK-31388, 59565

Orbit data source: Space-Track

STARLINK-31388, 59565 is a payload satellite owned by SpaceX/Seattle (US) in LEO that was launched on Tue, 23 Apr 2024 UTC via an FALCON 9 launch vehicle from the Air Force Eastern Test Range (AFETR). Payload-class satellites include a variety of spacecraft equipped with specific instruments for various scientific and technological missions. These include communications satellites like Starlink; space stations such as the ISS; scientific satellites like the Hubble; Earth observation satellites from companies like Planet Labs, Umbra, and HawkEye 360; GPS; miniature CubeSats for education and research; and military/defense satellites.

Loading next visibility...
Identifier
59565, 2024-076B
Orbit
LEO
Country
Flag of USUS
Related business
Manufacturer
SpaceX/Seattle
Mission
Operational Commercial Communications
Bus & Motor
STARLINK V2M, Unknown motor
Mass
730 kg wet, ~700 kg dry
Launch date (UTC)
2024-04-23 (2 years ago)
Launch vehicle
FALCON 9
Launch site
Air Force Eastern Test Range (AFETR)
Object type
Payload
Rocket body
Debris
Shape & HBR
Box + 2 Pan, 17.7 m
Radar Cross Section
33.884 m², Large (>1 m²)

Expand to show TLE details & history
Last TLE update: 9 hours ago

TLE from 9 hours ago
0 STARLINK-31388
1 59565U 24076B   26037.71921426 -.00001673  00000-0 -51300-4 0  9991
2 59565  43.0019 184.1423 0001514 275.7739  84.2940 15.27573107101763
Epoch: 2026-02-06T17:15Z
TLE epoch observation values (Epoch: 2026-02-06T17:15:40.112Z)
Latitude
-0°
Longitude
148.37211°
Altitude
482.742 km
Speed
7.626 km/s
True Right ascension
12h 16m 34s
True Declination
0° 00' 00"
Sunlit
Object was in full shadow at epoch
Visualization orbit readout
Latitude
Unknown
Longitude
Unknown
Altitude
Unknown
Speed
Unknown
Apparent Right ascension
Unknown
Apparent Declination
Unknown
Sunlit
N/A
Visualization observer readout
Local Sidereal Time
04:38:25
Azimuth
Unknown
Elevation
Unknown
Doppler factor
Unknown
Orbital elements
Apogee altitude
486.054 km
Perigee altitude
483.976 km
Semi-major axis
6,863.152 km
Eccentricity
0.00015
Inclination
43.0019°
RAAN
184.1423°
Arg. of periapsis
275.7739°
True anomaly
84.31126°
Mean anomaly
84.294°
Eccentric anomaly
84.30263°
Mean motion
3.81731 °/min
Orbital period
94.31 mins
BSTAR
-0.0000513
Loading maneuver chart data...
Computing Atmospheric mass density...
Loading historical data...
Loading historical data...
Loading historical data...
Loading historical data...
Loading historical data...
Loading historical data...
Loading historical data...

Documentation

Showing up to 5 results
|